Location: Unspecified
(0.0000°N, 0.0000°E)
Time: 21:30:58
(UTC+00:00)

CUTE 1.7 + AOD 2 - Visible Passes

Search period start: 02 July 2020 00:00
Search period end: 12 July 2020 00:00
Orbit: 592 x 613 km, 97.6° (Epoch: 02 July)

Date Brightness Start Highest point End Pass type
(mag) Time Alt. Az. Time Alt. Az. Time Alt. Az.
02 Jul ? 03:41:58 10° E 03:43:29 12° ESE 03:45:01 10° ESE visible
02 Jul ? 05:15:28 10° NNW 05:18:59 26° WNW 05:22:28 10° SW visible
03 Jul ? 03:52:32 10° ENE 03:55:21 18° ESE 03:57:41 12° SE visible
03 Jul ? 05:28:01 10° NW 05:30:52 18° WNW 05:33:45 10° WSW visible
04 Jul ? 04:03:43 10° NE 04:07:14 26° ESE 04:09:41 16° SSE visible
05 Jul ? 04:15:10 10° NNE 04:19:06 38° ESE 04:21:42 19° SSE visible
06 Jul ? 04:26:49 10° NNE 04:30:59 59° ESE 04:33:43 21° S visible
07 Jul ? 04:38:37 10° NNE 04:42:52 90° ESE 04:45:43 21° SSW visible
08 Jul ? 04:50:35 10° N 04:54:44 59° WNW 04:57:44 18° SSW visible
09 Jul ? 05:02:41 10° N 05:06:38 38° W 05:09:44 15° SW visible
10 Jul ? 03:41:21 10° E 03:43:00 12° ESE 03:44:39 10° SE visible
10 Jul ? 05:14:58 10° NNW 05:18:30 26° WNW 05:21:45 12° SW visible
11 Jul ? 03:51:58 10° ENE 03:54:52 18° ESE 03:56:57 13° SE visible
11 Jul ? 05:27:32 10° NW 05:30:23 18° WNW 05:33:15 10° WSW visible
